Weather History for Saint Simons Island, GA

Change the Weather History Date:

Monday, April 1, 2013

  Actual Average Record
Temperature  
Mean Temperature 70 °F 63 °F  
Max Temperature 81 °F 72 °F 86 °F (1966)
Min Temperature 58 °F 55 °F 37 °F (1987)
Degree Days  
Heating Degree Days 0 3  
Month to date heating degree days 0 3  
Since 1 July heating degree days 1228 1431  
Cooling Degree Days 5 2  
Month to date cooling degree days 5 2  
Year to date cooling degree days 44 42  
Growing Degree Days 20 (Base 50)    
Moisture  
Dew Point 57 °F    
Average Humidity 65    
Maximum Humidity 90    
Minimum Humidity 39    
Precipitation  
Precipitation 0.10 in 0.11 in 1.52 in (1957)
Month to date precipitation 0.10 0.11  
Year to date precipitation 6.32 10.68  
Snow  
Snow 0.00 in - 0.00 in ()
Month to date snowfall 0.0  
Since 1 July snowfall 0.0  
Snow Depth 0.00 in    
Sea Level Pressure  
Sea Level Pressure 29.95 in    
Wind  
Wind Speed 8 mph (WSW)    
Max Wind Speed 16 mph    
Max Gust Speed 26 mph    
Visibility 9 miles    
Events Rain    
T = Trace of Precipitation, MM = Missing Value Source: NWS Daily Summary

Daily Weather History Graph

Daily Weather History Graph

Search for Another Location

Airport:

Trip Planner

Search our weather history database for the weather conditions in past years. The results will help you decide how hot, cold, wet, or windy it might be!

Date:

Astronomy

Apr. 01, 2013 Rise Set
Actual Time 7:14 AM EDT 7:45 PM EDT
Civil Twilight 6:49 AM EDT 8:09 PM EDT
Nautical Twilight 6:21 AM EDT 8:38 PM EDT
Astronomical Twilight 5:52 AM EDT 9:07 PM EDT
Moon 12:35 AM EDT (4/1) 11:16 AM EDT (4/1)
Length of Visible Light 13h 19m
Length of Day
12h 30m
Waning Gibbous, 67% of the Moon is Illuminated
Apr 1
Waning Gibbous
Apr 3
Last Quarter
Apr 10
New
Apr 18
First Quarter
Apr 25
Full

Hourly Weather History & Observations

Time (EDT) Temp. Heat Index Dew Point Humidity Pressure Visibility Wind Dir Wind Speed Gust Speed Precip Events Conditions
12:53 AM 64.0 °F - 54.0 °F 70% 29.98 in 10.0 mi SW 8.1 mph - N/A   Clear
1:53 AM 62.1 °F - 55.0 °F 78% 29.97 in 10.0 mi SW 8.1 mph - N/A   Clear
2:53 AM 61.0 °F - 55.9 °F 83% 29.94 in 10.0 mi SW 6.9 mph - N/A   Clear
3:53 AM 61.0 °F - 55.9 °F 83% 29.94 in 10.0 mi SW 9.2 mph - N/A   Mostly Cloudy
4:53 AM 59.0 °F - 55.9 °F 90% 29.94 in 10.0 mi SW 3.5 mph - N/A   Clear
5:53 AM 60.1 °F - 57.0 °F 90% 29.94 in 10.0 mi WSW 8.1 mph - N/A   Scattered Clouds
6:53 AM 61.0 °F - 57.9 °F 90% 29.94 in 10.0 mi SW 8.1 mph - N/A   Partly Cloudy
7:49 AM 62.6 °F - 59.0 °F 88% 29.97 in 1.8 mi South 11.5 mph - 0.09 in Rain Rain
7:53 AM 62.1 °F - 60.1 °F 93% 29.97 in 1.5 mi SSW 6.9 mph - 0.09 in Rain Rain
8:00 AM 62.6 °F - 60.8 °F 94% 29.97 in 3.0 mi SW 8.1 mph - 0.01 in Rain Light Rain
8:53 AM 63.0 °F - 61.0 °F 93% 29.98 in 10.0 mi WSW 9.2 mph - 0.01 in   Mostly Cloudy
9:53 AM 66.0 °F - 63.0 °F 90% 29.98 in 10.0 mi SW 8.1 mph - N/A   Mostly Cloudy
10:53 AM 71.6 °F - 62.6 °F 73% 29.97 in 10.0 mi WSW 9.2 mph - N/A   Clear
11:53 AM 73.4 °F - 60.8 °F 65% 29.97 in 10.0 mi WSW 12.7 mph 23.0 mph N/A   Scattered Clouds
12:53 PM 73.9 °F - 61.0 °F 64% 29.96 in 10.0 mi West 10.4 mph 16.1 mph 0.00 in   Mostly Cloudy
1:53 PM 75.0 °F - 60.1 °F 60% 29.94 in 10.0 mi Variable 5.8 mph - 0.00 in Rain Light Rain
2:53 PM 80.1 °F 80.6 °F 57.9 °F 47% 29.91 in 10.0 mi West 13.8 mph 23.0 mph 0.00 in   Partly Cloudy
3:53 PM 80.6 °F 80.5 °F 55.4 °F 42% 29.90 in 10.0 mi West 13.8 mph 17.3 mph N/A   Partly Cloudy
4:53 PM 81.0 °F 80.8 °F 55.9 °F 42% 29.89 in 10.0 mi WNW 11.5 mph 18.4 mph N/A   Scattered Clouds
5:53 PM 80.6 °F 80.3 °F 53.6 °F 39% 29.89 in 10.0 mi West 9.2 mph 19.6 mph N/A   Clear
6:53 PM 78.8 °F - 51.8 °F 39% 29.89 in 10.0 mi WNW 8.1 mph 17.3 mph N/A   Clear
7:53 PM 75.0 °F - 53.1 °F 46% 29.91 in 10.0 mi Variable 5.8 mph - N/A   Clear
8:53 PM 72.0 °F - 54.0 °F 53% 29.93 in 10.0 mi Calm Calm - N/A   Clear
9:53 PM 66.9 °F - 55.0 °F 66% 29.95 in 10.0 mi Calm Calm - N/A   Clear
10:53 PM 66.9 °F - 53.1 °F 61% 29.96 in 10.0 mi Calm Calm - N/A   Clear
11:53 PM 66.9 °F - 52.0 °F 59% 29.98 in 10.0 mi WNW 4.6 mph - N/A   Clear